FW2420 Weather Reports


Display with metric or nautical units.
time (UTC)temp
F
wind
direction
speed
MPH
gust
MPH
rain 1hr
in
rain 24hr
in
rain mn
in
humidity
%
barometer
mb
20260504220040 79 360 5.0 12.0 0.00 0.00 0.00 14 998.8
20260504214536 80 64 1.0 5.0 0.00 0.00 0.00 14 999.0
20260504213031 80 360 1.0 4.0 0.00 0.00 0.00 14 999.1
20260504211534 80 360 0.0 6.0 0.00 0.00 0.00 14 999.5
20260504210024 80 360 7.0 11.0 0.00 0.00 0.00 14 999.6
20260504204523 79 100 3.0 7.0 0.00 0.00 0.00 14 999.8
20260504203027 78 360 1.0 9.0 0.00 0.00 0.00 14 999.9
20260504201521 79 360 5.0 14.0 0.00 0.00 0.00 15 1000.1
20260504200017 79 84 8.0 13.0 0.00 0.00 0.00 15 1000.3
20260504194514 80 360 8.0 13.0 0.00 0.00 0.00 15 1000.5
20260504193020 80 360 1.0 6.0 0.00 0.00 0.00 12 1000.5
20260504191515 80 339 0.0 18.0 0.00 0.00 0.00 12 1000.6
20260504190012 82 360 12.0 18.0 0.00 0.00 0.00 12 1000.7
20260504184506 81 360 9.0 16.0 0.00 0.00 0.00 13 1000.8
20260504183002 81 360 5.0 14.0 0.00 0.00 0.00 14 1001.1
20260504181600 81 314 6.0 13.0 0.00 0.00 0.00 14 1001.4
20260504180057 81 360 8.0 14.0 0.00 0.00 0.00 16 1001.6
20260504174550 80 360 6.0 14.0 0.00 0.00 0.00 17 1002.0
20260504173048 79 360 9.0 18.0 0.00 0.00 0.00 16 1002.2
20260504171544 78 360 9.0 18.0 0.00 0.00 0.00 16 1002.3
20260504140110 62 360 9.0 14.0 0.00 0.00 0.00 41 1003.6
20260504090106 40 360 6.0 8.0 0.00 0.00 0.00 73 1004.0
20260504081551 40 360 1.0 2.0 0.00 0.00 0.00 70 1004.7
20260504050001 46 360 1.0 2.0 0.00 0.00 0.00 59 1005.5
20260504044601 46 360 0.0 0.0 0.00 0.00 0.00 57 1005.4
20260504043030 46 360 0.0 0.0 0.00 0.00 0.00 53 1005.5
20260504041529 47 360 0.0 2.0 0.00 0.00 0.00 54 1005.5
20260504040027 48 360 0.0 0.0 0.00 0.00 0.00 53 1005.6
20260504034533 49 360 1.0 3.0 0.00 0.00 0.00 50 1005.6
20260504033036 51 360 2.0 3.0 0.00 0.00 0.00 43 1005.6
20260504031529 53 105 0.0 2.0 0.00 0.00 0.00 38 1005.6
20260504030019 56 360 1.0 3.0 0.00 0.00 0.00 36 1005.4
20260504024539 59 92 0.0 2.0 0.00 0.00 0.00 33 1005.2
20260504023018 62 92 0.0 2.0 0.00 0.00 0.00 30 1005.3
20260504021519 64 92 0.0 1.0 0.00 0.00 0.00 28 1005.1
20260504020016 65 92 1.0 4.0 0.00 0.00 0.00 27 1005.0
20260504014515 69 92 0.0 1.0 0.00 0.00 0.00 24 1004.9
20260504013016 71 92 0.0 1.0 0.00 0.00 0.00 22 1004.8
20260504011514 72 92 0.0 2.0 0.00 0.00 0.00 21 1005.0
20260504010011 74 92 1.0 4.0 0.00 0.00 0.00 19 1004.9
20260504004520 75 90 2.0 7.0 0.00 0.00 0.00 17 1005.0
20260504003008 76 81 4.0 9.0 0.00 0.00 0.00 16 1005.2
20260504001507 76 80 5.0 12.0 0.00 0.00 0.00 16 1005.4
20260504000036 77 360 4.0 9.0 0.00 0.00 0.00 16 1005.5
20260503234534 77 88 5.0 10.0 0.00 0.00 0.00 16 1005.6
20260503233031 77 360 4.0 11.0 0.00 0.00 0.00 15 1005.8
20260503231528 76 360 7.0 13.0 0.00 0.00 0.00 16 1005.9
20260503230027 76 360 4.0 10.0 0.00 0.00 0.00 16 1006.0
20260503224525 77 360 3.0 9.0 0.00 0.00 0.00 15 1006.1
20260503223058 78 360 3.0 8.0 0.00 0.00 0.00 15 1006.3
20260503221555 78 360 2.0 12.0 0.00 0.00 0.00 15 1006.5